Orbital Elements at Epoch 2459000.5 (2020-May-31.0) TDB
Reference: JPL 30 (heliocentric ecliptic J2000)
Element | Value | Uncertainty (1-sigma) | Units |
e | .2033606234841832 | 4.6293e-08 | |
a | 2.374708754282599 | 1.1428e-08 | au |
q | 1.891786501418342 | 1.0914e-07 | au |
i | 23.78074462377101 | 5.503e-06 | deg |
node | 357.1079090682741 | 1.009e-05 | deg |
peri | 210.0068568594432 | 1.5662e-05 | deg |
M | 13.17012494660908 | 1.0855e-05 | deg |
tp | 2458951.600845360211 (2020-Apr-12.10084536) | 4.0365e-05 | TDB |
period | 1336.63847090962 3.66 | 9.6486e-06 2.642e-08 | d yr |
n | .2693323646109107 | 1.9442e-09 | deg/d |
Q | 2.857631007146856 | 1.3752e-08 | au |
|
| | Orbit Determination Parameters
Additional Information
|